Terug naar catalogus

STARLINK-5504

ActiefCommunicatieVLEO
NORAD 57262·PAYLOAD·🇺🇸 United States

Gelanceerd Jul 7, 2023 vanaf Vandenberg Space Force Base

Loading…

Volgende Passages (komende 24 uur)

TLE

VersSource: CelesTrak SupGP

Epoch: Sep 15, 2026, 02:53 UTC

1 57262C 23094AW  26258.12062500 -.00048727  00000+0 -17651-2 0  2588
2 57262  43.0020  29.8615 0001571 263.3424  92.6542 15.27597776    17

Volg STARLINK-5504 in realtime met AllMySat

Download on the App Store